RH
48 55 65 72 76 78 79 78 78 80 81 83 86 87 88 88 87 90 93 90 87 84 81 81 85 89 93 95 98 100 100 100 100 100 100 98 96 93 92 94 95 96 99 100 100 97 91 87 85 83 82 79 76 73 68 62 56 49 45 43 41 38 33
53 60 66 72 74 76 78 78 78 78 77 78 83 87 90 90 89 92 95 93 89 86 84 85 88 93 97 99 100 100 100 100 100 100 100 99 98 96 95 95 95 95 97 100 101 99 94 91 87 84 84 83 79 76 73 67 60 51 46 44 42 38 32
59 63 68 72 74 75 76 77 76 76 75 77 82 88 92 93 93 95 96 94 92 89 88 89 93 97 100 100 100 100 100 100 100 100 100 100 99 99 97 97 97 96 97 99 100 100 98 96 93 87 86 87 84 81 79 73 65 55 49 46 45 40 33
61 64 67 69 71 72 73 73 74 75 76 78 83 88 93 94 94 95 95 94 93 91 91 93 94 97 100 100 100 100 100 100 100 100 100 100 100 100 98 98 98 98 97 98 99 100 100 99 96 93 90 90 89 87 84 78 69 59 52 49 47 43 36
62 64 65 66 68 69 69 69 71 72 74 79 85 90 93 94 95 94 93 93 92 91 92 92 93 93 95 97 98 98 99 100 100 100 100 100 100 100 99 97 98 99 99 99 98 99 101 101 99 97 96 95 93 90 87 82 71 61 54 51 50 46 41
65 65 65 66 67 67 68 69 69 70 72 75 79 82 86 88 88 88 88 88 87 87 87 87 87 87 88 90 92 95 98 99 100 100 100 100 100 100 99 96 96 99 100 100 100 100 101 101 101 100 99 99 97 91 89 85 74 63 56 53 52 50 45
69 69 69 69 68 68 69 69 69 70 71 71 72 73 74 75 75 75 75 76 77 80 81 82 83 84 85 87 90 94 97 98 100 100 100 100 100 100 100 97 96 98 100 101 101 100 100 100 102 101 99 101 99 91 87 85 76 65 58 55 55 52 48
74 73 72 71 71 71 71 70 69 69 70 71 72 73 74 73 73 72 72 72 73 75 77 79 81 82 83 86 89 93 97 99 100 100 100 100 100 100 101 99 97 98 101 101 100 99 100 100 101 101 100 101 100 94 89 86 78 68 61 57 56 54 50
79 77 76 76 75 75 73 71 68 66 67 69 71 74 77 77 77 76 75 75 74 75 76 77 79 82 84 86 89 94 98 100 101 100 100 100 100 100 100 99 98 99 100 100 98 97 99 100 100 101 101 101 101 99 95 88 79 71 63 58 57 56 52
86 85 84 83 82 82 80 77 73 70 69 68 68 73 77 79 79 78 77 76 75 76 77 78 80 82 85 87 90 94 98 100 101 100 100 100 100 100 99 98 99 100 101 100 97 97 98 99 99 100 101 101 101 101 98 91 81 72 65 60 58 56 53
89 91 93 93 92 90 88 87 85 82 78 74 70 71 75 78 79 79 79 78 76 76 77 79 81 83 86 89 91 94 98 100 101 100 100 100 100 100 100 99 99 100 100 99 97 98 99 98 98 101 102 101 100 101 100 93 83 74 66 60 58 57 53
89 91 95 97 97 96 96 96 96 95 92 87 81 76 75 78 79 80 80 79 78 78 78 79 80 82 85 89 92 96 99 101 101 100 100 100 100 100 100 100 100 100 100 100 98 97 97 97 99 101 102 101 101 101 101 96 86 75 66 60 58 58 55
95 97 97 97 97 97 98 99 100 100 99 98 95 89 84 81 81 81 81 81 81 82 81 81 81 81 83 87 93 98 100 101 101 100 100 100 100 100 99 100 101 101 101 100 99 96 95 97 101 102 101 101 102 101 100 98 89 75 66 61 59 58 56
95 99 100 100 99 98 99 99 100 100 100 100 100 99 96 91 87 84 83 83 85 85 85 85 85 84 84 87 93 98 100 101 100 100 100 100 99 98 98 100 101 102 101 101 99 96 95 99 103 102 100 101 102 101 101 99 90 75 66 62 59 58 57
96 98 100 100 100 100 100 100 100 100 100 100 100 100 101 99 94 90 86 86 87 88 90 90 90 90 90 91 94 98 100 101 100 100 100 99 99 99 100 100 100 100 101 102 101 99 97 100 102 101 100 101 101 101 101 99 90 76 67 63 60 60 59
99 100 100 100 100 100 100 100 100 100 100 100 100 100 100 100 99 96 92 89 88 89 91 93 94 95 95 96 98 100 101 101 100 100 100 99 99 100 100 100 99 100 102 102 103 101 98 100 102 101 101 101 100 101 101 98 90 78 68 64 62 62 62
96 98 99 100 100 100 100 99 100 100 100 100 100 100 100 100 100 99 96 94 92 91 92 94 95 97 98 99 100 101 101 101 100 100 100 99 100 100 99 99 99 100 102 103 103 101 99 100 101 101 101 100 100 101 101 98 91 79 71 68 66 66 64
88 95 99 101 100 100 100 100 100 100 100 100 100 100 100 100 100 99 97 97 97 96 95 94 96 99 100 100 100 101 100 100 100 100 100 100 100 100 98 99 101 102 103 103 101 100 100 101 101 100 100 100 100 101 100 98 91 81 74 71 68 67 64
66 76 87 96 101 100 100 100 100 100 100 99 100 100 100 100 100 98 96 96 98 98 97 98 99 100 101 100 101 100 100 100 101 100 100 100 100 98 97 99 102 103 103 103 102 101 101 101 101 101 101 100 100 101 101 98 91 83 78 73 69 67 65
52 58 66 79 92 98 100 100 100 100 100 100 100 100 100 100 100 99 98 97 97 97 99 100 101 101 101 100 100 100 100 101 100 100 101 101 99 97 98 101 103 102 101 102 101 101 101 101 101 101 101 100 100 101 101 97 90 84 79 74 71 69 66
47 53 57 62 72 83 92 98 100 101 100 100 100 100 100 100 99 99 100 99 99 98 99 99 100 100 101 100 100 101 100 100 100 100 100 100 100 100 101 102 102 101 101 101 101 101 101 101 100 100 100 100 100 101 101 97 90 84 79 75 73 70 67
27 40 50 57 62 67 76 86 95 99 100 100 100 100 100 100 100 99 100 100 99 98 98 98 99 100 101 101 101 101 100 100 101 100 98 98 100 102 102 102 101 101 102 102 101 101 101 101 100 100 100 100 100 101 101 97 90 84 79 75 73 71 70
9 17 28 42 53 60 64 71 81 92 99 101 100 100 100 100 100 100 100 100 99 99 98 97 97 98 100 102 102 101 100 100 100 100 99 98 99 102 103 103 102 101 101 101 101 101 101 101 100 100 100 100 101 102 101 96 90 85 80 76 75 73 71
9 9 11 20 35 51 60 63 68 80 94 101 101 100 100 100 100 100 100 100 99 100 99 96 94 95 98 102 103 101 100 100 100 100 100 99 100 101 102 102 101 100 100 101 101 101 101 101 100 101 101 101 102 102 100 94 90 85 81 79 76 74 72
14 15 13 14 22 37 52 59 62 68 83 97 102 101 100 100 100 100 101 100 99 99 100 98 96 96 99 102 102 101 100 100 100 100 100 100 100 101 101 101 100 100 100 100 100 100 100 100 101 102 102 102 102 101 97 93 90 86 83 80 78 75 72
24 26 27 26 28 36 47 56 59 63 74 90 100 102 100 101 100 100 100 100 99 98 99 98 97 99 101 101 102 101 101 100 100 100 100 100 100 101 101 100 100 100 100 100 100 101 101 101 102 102 102 102 102 100 96 93 90 88 85 82 79 76 73
40 43 45 44 46 53 60 65 67 67 74 88 99 101 101 101 100 100 100 100 99 99 98 98 98 100 101 101 101 101 101 100 100 100 100 99 100 101 101 100 100 100 100 100 100 101 102 102 103 102 102 102 101 98 96 94 92 89 86 84 80 78 74
55 61 66 65 65 70 78 84 87 84 84 90 98 101 101 101 101 100 100 100 100 100 100 100 100 100 101 101 101 101 100 100 101 100 100 99 100 100 100 100 100 100 99 99 100 101 101 102 102 101 101 101 99 96 95 95 93 90 87 84 81 78 74
74 79 85 86 86 87 89 94 99 99 96 96 100 102 102 101 101 101 100 100 100 100 100 100 100 100 100 100 100 101 101 100 100 100 100 100 100 100 100 100 100 100 100 100 100 101 100 100 100 100 100 99 97 96 96 95 93 90 87 84 80 76 72
88 90 93 95 96 99 99 98 99 101 101 100 101 101 101 102 102 101 100 100 100 100 100 100 100 100 101 101 101 101 101 101 101 101 100 100 100 100 100 100 100 100 100 100 100 100 99 99 99 100 100 99 98 97 96 95 93 90 87 83 78 73 68
93 93 96 98 98 99 100 100 99 100 100 100 100 100 101 102 101 100 100 100 100 100 100 100 100 101 101 102 102 102 102 101 101 101 100 100 100 100 100 100 100 100 100 101 101 100 99 99 100 100 100 100 99 98 98 97 94 90 86 80 74 68 62
95 94 96 98 99 99 99 100 100 100 100 100 100 100 100 101 100 100 100 100 100 100 100 100 100 100 101 101 101 101 101 101 100 100 100 100 100 100 100 100 100 101 101 101 101 100 100 100 101 102 102 102 102 101 99 97 93 89 83 76 69 62 55
99 99 99 99 99 100 100 100 100 100 100 100 100 100 100 100 100 100 100 100 100 100 100 100 100 100 100 100 101 101 100 100 100 100 100 100 100 100 100 100 101 102 102 101 100 101 101 101 102 103 104 103 102 101 99 95 91 84 77 70 62 55 47
101 102 103 103 101 100 100 100 99 100 100 100 100 100 100 100 100 100 100 100 100 100 100 100 100 100 100 100 100 100 100 101 101 100 100 100 100 100 100 100 101 101 101 100 100 101 101 101 102 103 103 102 101 99 95 91 85 77 69 62 54 47 40
98 100 101 103 102 101 100 100 99 100 100 100 100 100 100 100 100 100 100 100 100 100 100 100 100 100 100 100 100 100 100 101 100 100 100 100 100 100 100 100 100 100 100 101 101 101 101 102 103 103 102 101 98 94 89 84 77 69 61 53 46 40 35
96 98 99 101 101 100 100 100 100 100 100 100 100 100 100 100 100 100 100 100 100 100 100 100 100 100 100 100 100 100 100 100 100 100 100 100 100 100 100 100 100 100 100 100 100 100 101 103 103 102 100 97 93 88 82 74 67 58 50 44 39 35 34
Wind_Speed
45 43 42 43 44 45 46 46 45 44 45 45 45 47 48 48 48 46 45 46 47 47 46 47 48 50 51 51 51 51 52 52 51 50 48 46 45 45 45 45 45 45 45 44 43 43 42 41 40 39 39 41 42 43 43 43 42 41 41 41 41 41 41
43 42 42 42 43 44 45 45 45 45 45 45 45 46 47 48 47 47 46 46 47 47 47 48 50 51 52 53 53 53 54 55 55 54 52 50 48 48 48 47 47 47 47 46 44 44 43 43 42 41 40 41 42 43 43 43 43 42 42 42 42 42 41
42 42 41 42 42 43 44 45 45 46 47 46 46 46 47 47 48 47 47 46 47 48 49 50 51 51 53 53 54 54 55 56 56 56 55 54 53 52 51 51 50 50 49 47 46 45 44 44 43 43 43 42 43 44 44 44 43 43 43 42 42 42 41
42 42 41 41 42 42 43 44 45 46 46 46 47 47 47 47 48 47 47 47 48 49 50 50 51 51 52 53 54 55 56 56 57 57 57 57 56 55 55 54 53 53 51 49 48 46 45 45 45 45 44 44 45 45 45 45 44 44 43 43 43 42 41
41 41 41 41 41 41 42 43 44 45 45 46 46 47 47 47 48 48 48 48 49 50 50 51 51 51 52 53 54 55 56 56 57 58 59 59 59 58 58 57 55 55 54 52 51 49 47 46 45 45 44 44 45 46 46 45 45 44 44 44 44 43 42
41 42 41 41 41 42 42 43 43 44 45 45 45 46 47 47 48 48 48 49 50 51 51 52 52 52 53 54 54 55 55 56 57 58 59 60 60 60 61 60 57 56 57 55 53 51 49 47 46 45 44 44 45 47 47 46 45 45 45 45 44 43 42
43 43 44 44 44 44 44 45 46 46 46 46 46 46 47 48 48 49 49 50 51 52 52 53 53 53 54 54 54 54 55 56 57 58 60 60 61 61 62 62 59 57 58 57 55 52 50 49 47 46 45 43 45 47 47 46 46 46 46 46 45 44 42
44 45 47 47 48 48 48 49 50 50 50 49 48 48 48 49 50 50 51 52 53 53 54 54 54 54 54 54 54 54 55 56 57 58 60 60 61 61 62 61 60 59 59 58 57 53 51 50 49 47 45 43 44 46 46 46 47 47 46 46 46 45 43
47 48 49 50 51 51 51 51 52 52 52 51 50 50 49 50 51 52 52 53 54 55 55 55 55 55 54 54 55 55 55 56 57 58 59 60 61 61 61 61 60 59 59 59 57 54 52 52 51 48 45 43 44 44 45 47 48 48 47 46 46 45 43
51 52 53 53 54 54 54 53 53 53 53 52 52 51 51 51 51 52 53 53 54 55 55 55 55 55 55 55 55 55 56 57 57 58 59 60 61 60 60 60 60 59 59 58 58 55 53 53 52 48 45 43 43 44 45 47 48 48 48 47 46 45 43
54 55 55 56 57 57 57 57 56 56 55 55 54 53 53 53 53 53 53 54 55 55 55 55 55 55 55 55 55 56 56 57 57 58 59 60 60 60 60 60 60 59 58 58 58 56 54 53 52 48 45 44 43 44 46 47 48 49 48 47 47 46 43
56 56 57 58 59 59 60 60 59 59 59 58 57 56 55 55 55 55 55 55 56 56 56 56 56 55 55 55 55 56 56 57 57 58 59 59 60 60 60 60 59 58 58 57 57 56 54 53 51 49 46 44 44 45 47 48 48 48 48 47 47 46 44
59 59 59 60 60 61 61 61 62 62 62 61 61 59 58 57 57 57 57 57 57 57 57 57 57 56 56 55 56 56 56 57 57 57 58 59 59 60 60 59 58 57 57 57 57 56 54 53 51 50 47 45 45 47 48 48 47 47 47 48 47 46 45
62 63 63 62 63 63 63 62 63 64 64 64 63 62 61 60 58 59 59 59 59 59 59 59 58 57 56 56 57 57 57 57 57 57 58 58 59 59 59 58 57 56 56 56 56 55 54 52 52 50 48 47 47 48 48 47 47 47 47 48 47 46 45
66 67 66 65 65 65 65 64 65 66 66 66 65 65 64 63 62 61 60 60 61 60 60 59 58 57 57 57 57 57 57 57 56 57 57 58 58 58 58 57 56 55 55 54 54 54 53 53 52 50 50 49 49 49 48 48 47 47 47 47 47 47 46
68 69 69 68 68 68 67 66 66 67 67 67 67 67 68 67 66 64 63 61 61 61 61 60 59 58 57 58 58 58 57 57 56 56 57 57 57 56 56 56 55 55 54 54 53 53 53 53 52 50 50 50 49 49 48 48 48 48 47 46 47 47 45
69 69 69 69 69 69 69 67 67 68 68 69 69 69 69 69 68 67 65 63 62 61 61 61 59 58 58 58 58 58 58 57 56 56 56 56 56 56 56 55 55 54 53 53 53 53 53 53 52 51 51 50 49 49 49 49 49 47 46 46 48 47 44
69 69 70 70 69 69 69 68 67 67 67 68 68 69 69 68 68 67 67 66 64 62 61 61 60 59 59 59 59 58 58 56 56 56 55 55 55 55 56 55 53 52 52 52 53 54 54 53 51 51 51 50 50 49 49 49 49 47 46 47 47 45 44
65 66 67 68 68 68 67 66 66 65 65 64 65 66 67 67 68 68 67 67 66 64 63 62 61 60 59 59 58 57 56 56 55 55 55 54 54 55 55 53 51 50 51 52 52 53 53 53 52 51 50 49 49 49 49 49 49 47 47 47 45 44 45
64 63 63 64 65 66 66 64 63 62 62 62 63 64 65 66 67 67 67 67 67 66 64 63 62 60 59 58 57 56 55 54 54 54 54 53 54 55 53 51 50 51 52 52 52 52 53 53 52 51 49 49 48 48 48 48 48 48 47 46 45 44 45
65 64 63 62 62 62 63 63 62 60 60 61 61 61 62 63 64 65 66 67 66 65 64 63 61 60 58 56 55 54 53 53 53 54 54 54 54 53 51 50 50 51 52 52 52 52 52 51 51 50 49 48 48 48 47 46 46 47 47 47 47 46 46
64 64 64 62 61 60 60 60 60 59 58 59 59 58 58 58 60 61 62 63 64 63 62 60 59 59 57 55 53 52 52 52 52 52 54 54 53 51 50 50 50 51 52 53 52 51 51 50 50 48 47 47 47 47 46 45 46 46 47 47 47 47 47
61 62 63 62 61 60 58 57 57 56 56 56 57 56 55 54 55 56 58 59 60 59 59 58 57 57 57 53 51 51 52 52 50 51 52 53 52 50 49 49 50 51 52 51 51 50 50 49 48 47 46 46 46 46 45 46 46 46 46 46 46 46 47
56 57 58 59 60 59 58 57 55 54 53 53 54 55 54 53 52 53 54 55 56 56 56 56 56 57 57 53 49 49 50 51 50 50 50 50 50 49 48 48 49 50 50 50 49 49 49 48 46 45 45 45 46 46 46 46 45 45 45 45 46 46 46
53 53 53 54 55 56 56 56 55 53 52 51 51 52 52 51 50 50 51 52 53 54 55 55 55 56 56 52 48 48 49 50 50 49 47 47 47 48 48 48 48 48 48 48 48 48 48 47 46 45 45 45 46 46 46 45 44 43 43 44 44 45 45
50 50 50 51 51 52 53 54 54 52 51 50 49 49 49 48 48 47 48 50 51 52 53 54 54 54 52 48 47 48 48 49 48 46 44 44 45 46 46 47 47 47 47 46 46 47 47 46 45 45 45 45 45 45 45 44 43 42 42 42 43 44 45
48 48 48 49 49 49 50 52 52 51 50 48 47 46 46 46 45 44 45 47 48 49 50 51 51 49 47 45 46 47 47 47 46 44 43 42 43 43 44 45 45 46 46 46 46 46 45 45 45 45 45 45 44 44 44 43 42 42 42 42 43 44 44
47 46 46 47 47 47 48 49 50 51 49 47 46 44 43 43 42 42 42 44 45 46 47 48 47 45 44 45 46 46 45 45 44 42 42 41 40 41 42 43 44 45 46 46 46 45 44 44 44 44 44 44 44 43 43 42 41 41 41 41 43 44 44
45 44 45 45 45 45 46 46 47 48 48 46 44 42 41 40 40 39 39 40 41 42 44 44 45 45 45 46 46 44 43 42 41 40 39 38 39 39 40 42 43 45 45 45 45 44 44 44 43 43 43 43 43 43 42 41 41 40 40 40 42 43 43
42 42 43 43 43 43 43 44 45 45 46 45 42 39 38 38 37 36 36 36 37 40 42 43 44 45 46 46 44 42 40 39 37 37 36 36 37 38 39 41 43 43 44 44 44 44 44 43 43 43 43 43 43 42 41 41 41 40 40 40 41 41 41
38 39 39 40 40 40 40 41 42 41 42 42 40 37 35 34 33 32 32 33 35 37 39 41 42 43 43 42 40 39 37 35 35 34 34 35 36 37 39 40 41 41 42 42 43 43 43 43 43 43 43 43 42 41 41 41 40 40 40 40 39 40 40
34 35 35 35 36 36 35 36 36 36 36 37 35 33 31 31 30 29 29 31 33 35 36 38 38 39 39 38 37 35 34 32 32 32 32 34 35 37 38 38 39 40 40 41 42 42 42 42 42 42 42 42 41 41 41 41 40 40 40 39 39 39 39
31 32 32 32 31 31 31 31 31 30 31 31 30 29 28 28 28 28 28 29 31 32 33 34 34 34 35 34 34 33 31 31 31 31 32 34 35 35 36 37 38 39 40 41 41 41 41 42 41 41 41 40 40 40 41 41 41 40 39 38 38 38 38
30 29 29 30 29 28 27 27 26 25 26 26 26 25 26 26 27 27 27 27 28 29 29 30 31 31 32 32 31 31 30 30 30 31 32 33 34 35 36 37 38 39 40 40 40 40 40 40 39 39 39 39 39 39 40 40 39 38 38 37 37 37 37
29 28 28 28 27 26 25 25 24 23 23 23 23 23 24 25 25 25 25 25 26 27 27 28 29 30 30 30 30 29 29 29 30 31 32 34 34 35 36 37 38 38 38 39 39 39 38 38 37 37 37 37 38 38 38 38 38 37 37 37 37 37 37
30 29 28 27 27 26 25 24 23 22 22 22 22 22 22 23 23 23 24 24 25 25 26 27 27 28 28 28 28 28 29 30 31 32 33 34 35 36 36 37 37 37 37 37 37 36 36 35 35 35 36 36 36 36 36 36 36 36 36 36 36 36 37
Wind_Direction
283 280 277 276 276 277 278 279 280 280 279 279 279 279 280 281 281 281 280 278 276 276 274 273 271 268 266 265 265 264 263 263 263 263 264 266 269 271 272 273 273 274 276 276 277 277 276 275 273 270 268 267 267 269 270 272 273 273 275 276 278 278 279
282 280 278 278 278 279 280 280 281 281 281 281 281 281 281 281 281 281 279 277 276 275 274 272 269 268 266 266 265 265 264 264 263 263 264 265 266 268 270 271 272 272 273 274 275 275 276 275 274 272 270 267 265 266 267 269 270 271 272 274 275 276 276
282 281 281 281 281 281 281 282 281 281 281 281 280 280 280 280 280 280 279 278 276 275 274 272 271 269 268 267 267 267 266 265 265 265 265 265 266 267 268 269 270 271 272 273 273 274 274 275 274 273 272 269 266 265 265 266 267 268 269 271 272 273 274
281 282 282 282 282 283 283 282 282 281 280 280 279 278 279 279 279 279 279 278 277 275 274 273 273 271 270 269 268 268 268 267 267 267 267 266 266 266 267 268 268 269 271 271 271 272 273 274 273 272 271 270 268 266 266 266 266 267 268 269 270 271 272
281 281 281 281 281 282 282 282 282 281 280 279 278 278 278 277 278 278 277 277 276 275 274 274 274 273 271 270 269 268 268 268 268 268 268 267 266 266 266 267 267 269 270 270 271 271 272 272 272 271 270 269 268 266 266 266 266 266 267 268 269 270 272
284 284 284 283 282 281 281 281 281 281 281 280 279 278 278 277 277 276 276 275 274 274 274 274 274 273 272 271 269 269 268 268 268 268 267 267 266 265 265 266 267 269 270 271 271 271 271 271 271 270 269 268 267 266 265 265 265 265 266 267 269 270 271
287 287 286 285 284 283 283 282 281 280 280 280 279 279 278 278 277 276 275 275 274 274 273 273 273 272 272 271 270 269 268 267 267 267 267 266 265 265 265 266 267 269 270 271 272 272 271 270 271 270 269 268 266 265 265 265 265 264 265 267 269 270 271
285 286 285 285 285 285 285 284 283 282 280 279 278 277 277 276 275 275 274 273 273 273 272 272 272 271 271 271 270 269 268 267 267 266 266 266 265 265 265 266 267 268 269 270 271 272 271 270 270 270 269 268 266 265 265 265 263 263 264 266 268 270 271
285 284 284 285 286 286 286 286 285 284 283 281 279 277 276 275 274 273 273 272 272 271 271 271 271 271 271 270 269 269 268 267 266 266 266 266 265 265 265 266 266 267 268 269 270 271 272 271 270 270 270 268 267 266 265 264 263 263 264 265 267 269 271
284 284 284 285 285 286 286 286 286 286 285 283 281 278 276 275 274 273 273 272 272 271 271 270 270 270 270 269 269 268 267 267 266 266 266 265 265 265 265 265 265 266 267 268 269 270 271 271 271 271 271 269 267 266 264 263 263 263 264 265 267 269 270
282 283 284 284 284 285 285 285 286 285 284 283 281 279 277 275 274 273 272 272 272 271 271 270 270 269 269 269 268 268 267 267 266 266 265 265 265 265 264 264 265 265 266 267 268 270 271 271 271 272 271 270 268 266 265 263 262 262 264 266 267 268 269
280 280 281 282 282 282 283 284 284 284 283 282 281 279 277 275 274 272 271 271 271 271 271 270 270 269 269 269 268 268 267 267 266 266 265 265 264 264 264 264 264 265 266 267 268 270 271 271 272 272 271 270 268 266 264 263 262 263 264 265 267 269 270
277 277 278 278 279 280 280 281 282 281 281 280 279 278 276 275 273 272 271 270 270 270 270 269 269 269 269 269 268 268 267 267 266 266 265 265 264 264 264 264 264 265 266 266 268 270 271 272 273 272 271 269 267 265 264 263 263 263 264 265 267 269 270
274 274 275 276 277 277 278 278 279 279 279 278 277 276 274 273 272 271 270 269 268 268 268 269 269 269 269 268 268 267 267 266 266 265 265 265 265 265 264 264 264 264 264 265 267 270 271 272 272 271 270 268 266 265 264 264 263 263 263 265 267 269 270
272 272 272 273 274 275 275 276 276 276 276 275 275 274 273 272 271 269 268 268 268 267 268 268 268 268 268 268 268 267 267 266 265 265 265 265 265 264 264 264 264 263 262 263 266 268 270 270 270 270 269 268 267 266 265 264 264 263 263 265 267 269 270
271 271 271 271 272 273 273 274 274 274 274 274 274 273 272 271 270 269 268 267 266 266 267 267 267 267 267 267 267 267 266 266 265 265 264 265 264 264 263 264 263 262 262 262 264 266 268 269 269 269 268 268 267 267 266 265 264 263 265 267 268 269 270
270 270 271 271 271 272 272 273 273 273 273 272 272 271 271 270 270 268 268 267 265 265 265 266 266 266 266 266 266 266 266 266 265 265 264 264 264 263 263 262 261 261 261 262 264 265 266 267 268 268 267 267 267 267 267 266 265 266 267 267 268 269 271
272 271 271 271 272 272 272 272 272 273 272 272 271 270 270 270 270 269 268 267 265 264 264 264 265 265 265 265 266 266 266 266 266 266 265 264 263 263 262 262 260 259 260 261 263 265 266 266 266 266 266 266 267 267 267 266 266 267 268 268 269 271 272
275 274 273 272 272 272 273 273 273 272 272 271 271 271 271 271 270 270 269 268 266 265 263 263 263 263 264 264 265 265 266 266 266 267 266 264 263 263 263 261 259 259 259 260 261 263 265 266 265 265 265 266 267 267 267 267 267 267 268 269 271 273 274
278 277 275 274 273 272 272 273 273 273 272 271 271 272 272 272 271 271 269 268 266 265 263 262 262 262 262 263 263 264 265 265 266 266 265 264 263 263 262 260 257 257 258 259 260 262 263 264 265 265 265 265 266 266 267 268 269 270 270 271 272 272 273
279 279 278 276 276 275 274 274 274 273 273 272 271 272 273 272 272 271 270 268 266 264 263 263 263 263 263 262 262 263 263 263 264 265 264 263 263 262 260 256 255 256 257 258 260 261 261 262 263 264 265 266 266 266 266 267 268 270 271 272 273 273 273
280 279 278 278 278 277 277 276 275 275 274 273 272 272 273 273 272 271 269 268 266 264 263 263 264 264 264 263 262 262 262 262 262 263 264 264 262 260 258 256 256 255 256 257 259 260 261 261 262 263 264 265 267 267 267 267 267 268 270 271 273 274 275
282 280 279 278 277 277 277 277 277 276 275 273 272 272 273 273 273 271 270 268 267 266 265 264 265 266 265 263 261 261 261 261 261 261 262 263 262 260 258 256 256 256 256 258 259 259 260 260 261 262 263 264 265 265 266 266 267 268 270 271 273 274 275
285 282 280 278 277 276 276 277 277 277 275 274 273 272 272 273 273 272 271 270 269 268 267 267 267 267 267 265 262 261 260 260 260 259 260 261 262 261 259 256 255 257 258 259 260 260 260 260 260 261 262 263 263 263 263 264 266 268 270 272 273 274 275
287 285 282 279 277 275 274 274 275 276 275 274 273 272 272 272 272 272 271 270 270 269 268 268 268 268 268 266 264 262 261 260 260 259 258 258 259 259 259 258 257 257 258 259 259 260 260 261 261 261 261 261 261 262 263 265 266 267 268 269 270 272 273
289 287 283 281 278 276 274 273 273 273 274 274 273 272 271 271 272 272 271 270 270 269 269 269 269 268 267 266 264 263 262 261 261 259 257 255 255 256 258 259 260 260 259 259 258 258 258 259 261 262 262 261 262 263 264 265 265 265 265 265 266 267 268
291 289 285 282 279 277 275 274 273 272 272 272 271 271 270 270 271 271 270 269 269 269 269 269 269 267 265 263 261 260 260 260 260 259 257 255 255 256 257 258 259 260 260 259 258 258 259 260 261 262 262 263 264 264 265 265 266 265 265 265 265 265 265
293 291 288 285 282 279 277 276 275 273 271 270 270 270 269 269 270 270 269 269 268 268 268 268 266 264 261 259 258 258 258 259 259 259 258 256 255 255 255 256 257 258 258 259 260 261 261 262 263 263 264 264 265 266 266 267 267 266 266 266 266 267 267
296 294 292 289 286 283 281 279 277 275 273 271 270 269 269 268 268 268 268 267 266 265 264 262 261 259 258 257 257 257 258 259 260 259 258 257 255 253 253 254 254 256 257 260 262 263 264 265 265 265 265 266 267 268 268 268 267 266 266 266 267 268 269
300 299 296 292 289 287 285 283 280 278 275 272 271 269 268 267 267 268 268 267 264 262 260 259 258 257 257 257 258 259 260 261 261 260 258 257 255 253 252 252 253 255 257 260 263 264 265 266 266 266 267 267 268 269 268 268 268 267 267 267 267 268 269
303 302 300 296 293 290 288 286 283 281 277 274 271 269 268 267 266 266 266 264 262 260 259 259 259 259 259 260 260 261 261 261 261 260 258 256 253 252 251 252 253 256 258 261 263 264 264 265 266 266 267 268 268 269 269 269 269 269 268 268 268 268 268
305 305 304 301 297 293 290 288 286 284 280 277 274 272 269 267 264 263 262 260 259 259 259 260 260 261 261 262 263 263 263 262 261 258 255 253 252 251 252 254 256 258 260 261 261 262 263 264 265 265 266 267 268 269 269 269 269 269 269 269 269 269 269
305 307 308 306 303 298 294 291 290 287 283 280 277 275 271 267 264 261 259 258 259 259 260 261 261 262 263 264 264 264 263 261 258 255 253 253 253 253 255 257 258 260 260 261 261 262 262 262 263 264 265 266 266 267 268 268 268 269 269 270 270 270 270
304 306 307 309 308 305 300 296 294 292 288 284 281 278 274 270 266 263 261 260 261 261 262 262 263 263 264 264 263 262 260 257 255 254 254 255 256 258 259 259 260 260 260 261 261 261 261 261 262 263 264 264 265 266 266 267 269 270 271 271 271 272 272
305 304 304 306 308 308 306 302 298 295 292 289 285 281 277 273 270 268 266 264 264 263 264 264 263 263 263 262 261 259 258 256 256 256 257 259 260 261 261 261 261 261 260 260 260 260 261 262 262 263 264 265 265 266 267 269 270 272 273 273 274 274 274
306 304 303 303 304 305 306 304 301 298 295 292 288 284 280 277 274 272 269 268 267 266 265 264 264 263 262 261 261 260 260 260 261 261 262 263 263 263 263 262 262 262 261 260 260 260 261 262 264 265 266 267 268 268 269 271 272 273 274 274 275 275 276